Hourly Weather Adelaide

Today, 27 July, Tuesday

Time Temperature Precipitation Wind Pressure Humidity
00:00 +13°C° 0 mm 6 mps 700 mmHg 22%
01:00 +13°C° 0 mm 6 mps 699 mmHg 23%
02:00 +12°C° 0 mm 7 mps 699 mmHg 23%
03:00 +12°C° 0 mm 7 mps 699 mmHg 25%
04:00 +12°C° 0 mm 8 mps 699 mmHg 26%
05:00 +12°C° 0 mm 8 mps 699 mmHg 28%
06:00 +12°C° 0 mm 8 mps 699 mmHg 29%
07:00 +12°C° 0 mm 9 mps 699 mmHg 29%
08:00 +13°C° 0 mm 9 mps 699 mmHg 30%
09:00 +14°C° 0 mm 10 mps 700 mmHg 28%
10:00 +17°C° 0 mm 11 mps 700 mmHg 26%
11:00 +18°C° 0 mm 11 mps 700 mmHg 24%
12:00 +19°C° 0 mm 11 mps 699 mmHg 23%
13:00 +21°C° 0 mm 12 mps 699 mmHg 21%
14:00 +22°C° 0 mm 12 mps 698 mmHg 20%
15:00 +22°C° 0 mm 11 mps 698 mmHg 20%
16:00 +21°C° 0 mm 11 mps 698 mmHg 20%
17:00 +21°C° 0 mm 10 mps 698 mmHg 20%
18:00 +19°C° 0 mm 9 mps 698 mmHg 21%
19:00 +18°C° 0 mm 8 mps 698 mmHg 22%
20:00 +17°C° 0 mm 7 mps 698 mmHg 22%
21:00 +17°C° 0 mm 7 mps 698 mmHg 23%
22:00 +16°C° 0 mm 7 mps 698 mmHg 23%
23:00 +16°C° 0 mm 6 mps 698 mmHg 23%

Tomorrow, 28 July, Wednesday

Time Temperature Precipitation Wind Pressure Humidity
00:00 +15°C° 0 mm 6 mps 698 mmHg 25%
01:00 +15°C° 0 mm 5 mps 698 mmHg 27%
02:00 +14°C° 0 mm 5 mps 698 mmHg 28%
03:00 +13°C° 0 mm 4 mps 698 mmHg 32%
04:00 +12°C° 0 mm 3 mps 698 mmHg 36%
05:00 +11°C° 0 mm 3 mps 698 mmHg 40%
06:00 +10°C° 0 mm 2 mps 698 mmHg 45%
07:00 +10°C° 0 mm 2 mps 699 mmHg 50%
08:00 +10°C° 0 mm 2 mps 699 mmHg 55%
09:00 +13°C° 0 mm 2 mps 700 mmHg 50%
10:00 +15°C° 0 mm 2 mps 700 mmHg 44%
11:00 +17°C° 0 mm 3 mps 700 mmHg 38%
12:00 +19°C° 0 mm 4 mps 699 mmHg 33%
13:00 +20°C° 0 mm 4 mps 698 mmHg 28%
14:00 +22°C° 0 mm 5 mps 698 mmHg 23%
15:00 +21°C° 0 mm 5 mps 697 mmHg 26%
16:00 +20°C° 0 mm 5 mps 697 mmHg 30%
17:00 +19°C° 0 mm 4 mps 697 mmHg 34%
18:00 +17°C° 0 mm 4 mps 697 mmHg 49%
19:00 +13°C° 0 mm 3 mps 698 mmHg 64%
20:00 +12°C° 0 mm 2 mps 698 mmHg 79%
21:00 +12°C° 0 mm 1 mps 698 mmHg 79%
22:00 +12°C° 0 mm 1 mps 698 mmHg 79%
23:00 +10°C° 0 mm 0 mps 698 mmHg 80%

Day after tomorrow, 29 July, Thursday

Time Temperature Precipitation Wind Pressure Humidity
00:00 +11°C° 0 mm 1 mps 698 mmHg 78%
01:00 +9°C° 0 mm 2 mps 698 mmHg 76%
02:00 +9°C° 0 mm 2 mps 698 mmHg 75%
03:00 +9°C° 0 mm 3 mps 698 mmHg 69%
04:00 +8°C° 0 mm 3 mps 699 mmHg 64%
05:00 +8°C° 0 mm 3 mps 699 mmHg 58%
06:00 +8°C° 0 mm 3 mps 700 mmHg 55%
07:00 +9°C° 0 mm 3 mps 701 mmHg 52%
08:00 +9°C° 0 mm 3 mps 701 mmHg 48%
09:00 +10°C° 0 mm 5 mps 702 mmHg 44%
10:00 +13°C° 0 mm 6 mps 703 mmHg 40%
11:00 +15°C° 0 mm 8 mps 704 mmHg 35%
12:00 +15°C° 0 mm 8 mps 704 mmHg 35%
13:00 +16°C° 0 mm 7 mps 704 mmHg 34%
14:00 +16°C° 0 mm 7 mps 704 mmHg 34%
15:00 +15°C° 0 mm 6 mps 704 mmHg 36%
16:00 +15°C° 0 mm 5 mps 704 mmHg 39%
17:00 +14°C° 0 mm 5 mps 705 mmHg 41%
18:00 +12°C° 0 mm 3 mps 705 mmHg 52%
19:00 +10°C° 0 mm 2 mps 706 mmHg 63%
20:00 +9°C° 0 mm 1 mps 706 mmHg 74%
21:00 +8°C° 0 mm 1 mps 706 mmHg 77%
22:00 +8°C° 0 mm 1 mps 706 mmHg 81%
23:00 +7°C° 0 mm 1 mps 707 mmHg 84%

30 July, Friday

Time Temperature Precipitation Wind Pressure Humidity
00:00 +7°C° 0 mm 1 mps 706 mmHg 82%
01:00 +7°C° 0 mm 1 mps 706 mmHg 81%
02:00 +7°C° 0 mm 1 mps 706 mmHg 79%
03:00 +7°C° 0 mm 1 mps 706 mmHg 77%
04:00 +7°C° 0 mm 1 mps 706 mmHg 76%
05:00 +7°C° 0 mm 1 mps 706 mmHg 74%
06:00 +8°C° 0 mm 1 mps 706 mmHg 69%
07:00 +8°C° 0 mm 1 mps 706 mmHg 63%
08:00 +9°C° 0 mm 1 mps 707 mmHg 58%
09:00 +12°C° 0 mm 1 mps 707 mmHg 49%
10:00 +15°C° 0 mm 1 mps 707 mmHg 40%
11:00 +18°C° 0 mm 1 mps 708 mmHg 31%
12:00 +20°C° 0 mm 1 mps 707 mmHg 28%
13:00 +21°C° 0 mm 1 mps 707 mmHg 25%
14:00 +21°C° 0 mm 2 mps 706 mmHg 23%
15:00 +20°C° 0 mm 2 mps 706 mmHg 25%
16:00 +19°C° 0 mm 2 mps 706 mmHg 28%
17:00 +18°C° 0 mm 2 mps 706 mmHg 30%
18:00 +16°C° 0 mm 2 mps 706 mmHg 35%
19:00 +14°C° 0 mm 1 mps 705 mmHg 39%
20:00 +13°C° 0 mm 1 mps 705 mmHg 43%
21:00 +12°C° 0 mm 1 mps 705 mmHg 45%
22:00 +12°C° 0 mm 1 mps 705 mmHg 47%
23:00 +12°C° 0 mm 1 mps 705 mmHg 48%

31 July, Saturday

Time Temperature Precipitation Wind Pressure Humidity
00:00 +12°C° 0 mm 1 mps 705 mmHg 45%
01:00 +12°C° 0 mm 2 mps 705 mmHg 42%
02:00 +12°C° 0 mm 2 mps 705 mmHg 39%
03:00 +12°C° 0 mm 2 mps 705 mmHg 35%
04:00 +11°C° 0 mm 3 mps 705 mmHg 32%
05:00 +11°C° 0 mm 3 mps 704 mmHg 28%
06:00 +12°C° 0 mm 3 mps 705 mmHg 26%
07:00 +12°C° 0 mm 3 mps 705 mmHg 25%
08:00 +13°C° 0 mm 3 mps 705 mmHg 23%
09:00 +17°C° 0 mm 4 mps 706 mmHg 19%
10:00 +21°C° 0 mm 4 mps 706 mmHg 15%
11:00 +25°C° 0 mm 5 mps 706 mmHg 11%
12:00 +26°C° 0 mm 6 mps 706 mmHg 11%
13:00 +27°C° 0 mm 6 mps 705 mmHg 10%
14:00 +27°C° 0 mm 6 mps 704 mmHg 10%
15:00 +26°C° 0 mm 5 mps 704 mmHg 11%
16:00 +25°C° 0 mm 4 mps 704 mmHg 12%
17:00 +23°C° 0 mm 2 mps 703 mmHg 14%
18:00 +21°C° 0 mm 3 mps 703 mmHg 14%
19:00 +19°C° 0 mm 3 mps 703 mmHg 15%
20:00 +18°C° 0 mm 3 mps 703 mmHg 16%
21:00 +18°C° 0 mm 3 mps 703 mmHg 16%
22:00 +17°C° 0 mm 4 mps 703 mmHg 17%
23:00 +17°C° 0 mm 4 mps 702 mmHg 18%

1 August, Sunday

Time Temperature Precipitation Wind Pressure Humidity
00:00 +15°C° 0 mm 4 mps 702 mmHg 18%
01:00 +15°C° 0 mm 4 mps 702 mmHg 19%
02:00 +15°C° 0 mm 4 mps 702 mmHg 20%
03:00 +14°C° 0 mm 4 mps 702 mmHg 21%
04:00 +14°C° 0 mm 4 mps 701 mmHg 22%
05:00 +13°C° 0 mm 4 mps 701 mmHg 23%
06:00 +14°C° 0 mm 4 mps 702 mmHg 24%
07:00 +14°C° 0 mm 4 mps 702 mmHg 24%
08:00 +14°C° 0 mm 5 mps 702 mmHg 25%
09:00 +17°C° 0 mm 5 mps 703 mmHg 21%
10:00 +21°C° 0 mm 6 mps 703 mmHg 18%
11:00 +24°C° 0 mm 7 mps 704 mmHg 14%
12:00 +26°C° 0 mm 7 mps 703 mmHg 13%
13:00 +27°C° 0 mm 8 mps 703 mmHg 12%
14:00 +28°C° 0 mm 9 mps 702 mmHg 11%
15:00 +26°C° 0 mm 8 mps 702 mmHg 18%
16:00 +22°C° 0 mm 8 mps 702 mmHg 24%
17:00 +20°C° 0 mm 7 mps 702 mmHg 30%
18:00 +16°C° 0 mm 5 mps 703 mmHg 45%
19:00 +13°C° 0 mm 3 mps 704 mmHg 59%
20:00 +11°C° 0 mm 1 mps 705 mmHg 74%
21:00 +12°C° 0 mm 1 mps 706 mmHg 75%
22:00 +12°C° 0 mm 1 mps 706 mmHg 77%
23:00 +13°C° 0 mm 1 mps 706 mmHg 78%
Show more